User: anonymous   Login
Location: Unspecified
(0.0000°N, 0.0000°E)
Time: 07:24:09
(UTC+00:00)
Language:

CANX 3A (UNIBRITE) - Orbit

View from above orbital plane
View from above orbital plane
View from above satellite
View from above satellite

Ground track
Ground track

The orbit data is extracted from the following two-line orbital elements,

1 39092U 13009G   17296.89804361 +.00000021 +00000-0 +22682-4 0  9997
2 39092 098.5388 140.0838 0008286 281.7065 078.3190 14.34920232243921
Epoch (UTC): 23 October 2017 21:33:10
Eccentricity: 0.0008286
inclination: 98.5388°
perigee height: 769 km
apogee height: 781 km
right ascension of ascending node: 140.0838°
argument of perigee: 281.7065°
revolutions per day: 14.34920232
mean anomaly at epoch: 78.3190°
orbit number at epoch: 24392

The dashed part of the orbit path shows where the satellite is in the earth's shadow,  

DLR